Terminal Aerodrome Forecast
Issued by NWS Dallas/Fort Worth, TX

Home | Current Version | Previous Version | Text Only | Print | Product List | Glossary On
Versions: 1 2 3 4 5 6 7 8 9 10 11 12 13 14 15 16 17 18 19 20 21 22 23 24 25
000
FTUS44 KFWD 261740
TAFDFW
TAF
KDFW 261740Z 2618/2724 18013KT P6SM BKN021
     FM262100 17014KT P6SM VCSH OVC012
     FM270300 15012KT 5SM -DZ BR OVC010
     FM270600 15009KT 2SM -DZ BR OVC008
     FM271200 17012KT 5SM BR OVC015
     FM271700 21014KT P6SM SCT015
     FM272200 21010KT P6SM SCT050=

USA.gov is the U.S. government's official web portal to all federal, state and local government web resources and services.